Вернуться в каталог

FENGYUN 1C DEB

АктивенSSO
NORAD 29968·DEBRIS·🇨🇳 China

Запущен May 10, 1999 с Taiyuan Satellite Launch Center

Loading…

Ближайшие Пролёты (ближайшие 24 часа)

TLE

СвежийSource: Space-Track

Эпоха: Sep 14, 2026, 18:19 UTC

1 29968U 99025KS  26257.76335287  .00000068  00000-0  64246-4 0  9992
2 29968  98.8271 245.8340 0088955 298.1580 238.9709 14.07416511  9282

Отслеживайте FENGYUN 1C DEB в реальном времени с AllMySat

Download on the App Store